| time (UTC) | temp F | wind direction | speed MPH | gust MPH | rain 1hr in | rain 24hr in | rain mn in | humidity % | barometer mb |
| 20260509021355 | 65 | 245 | 2.0 | 7.0 | 0.00 | 0.00 | 0.00 | 64 | 1020.9 |
| 20260509021345 | 63 | 240 | 1.0 | 8.0 | 0.00 | 0.00 | 0.00 | 65 | 1021.0 |
| 20260509020846 | 64 | 271 | 2.0 | 8.0 | 0.00 | 0.00 | 0.00 | 65 | 1021.0 |
| 20260509020345 | 64 | 173 | 2.0 | 8.0 | 0.00 | 0.00 | 0.00 | 63 | 1021.0 |
| 20260509015845 | 64 | 256 | 2.0 | 8.0 | 0.00 | 0.00 | 0.00 | 63 | 1021.0 |
| 20260509015346 | 65 | 304 | 2.0 | 7.0 | 0.00 | 0.00 | 0.00 | 63 | 1020.9 |
| 20260509014350 | 64 | 267 | 2.0 | 10.0 | 0.00 | 0.00 | 0.00 | 63 | 1020.9 |
| 20260509014344 | 64 | 242 | 2.0 | 10.0 | 0.00 | 0.00 | 0.00 | 63 | 1020.9 |
| 20260509013342 | 65 | 218 | 2.0 | 10.0 | 0.00 | 0.00 | 0.00 | 62 | 1020.9 |
| 20260509012844 | 65 | 238 | 2.0 | 10.0 | 0.00 | 0.00 | 0.00 | 62 | 1021.0 |
| 20260509012348 | 65 | 247 | 2.0 | 6.0 | 0.00 | 0.00 | 0.00 | 63 | 1021.0 |
| 20260509012343 | 65 | 259 | 2.0 | 6.0 | 0.00 | 0.00 | 0.00 | 62 | 1021.0 |
| 20260509011343 | 65 | 235 | 3.0 | 7.0 | 0.00 | 0.00 | 0.00 | 61 | 1021.0 |
| 20260509010842 | 65 | 238 | 3.0 | 7.0 | 0.00 | 0.00 | 0.00 | 60 | 1021.1 |
| 20260509010342 | 66 | 241 | 3.0 | 7.0 | 0.00 | 0.00 | 0.00 | 59 | 1021.2 |
| 20260509005843 | 66 | 300 | 2.0 | 7.0 | 0.00 | 0.00 | 0.00 | 59 | 1021.2 |
| 20260509005343 | 67 | 248 | 2.0 | 7.0 | 0.00 | 0.00 | 0.00 | 60 | 1021.2 |
| 20260509004844 | 66 | 223 | 3.0 | 9.0 | 0.00 | 0.00 | 0.00 | 60 | 1021.2 |
| 20260509004344 | 66 | 233 | 3.0 | 9.0 | 0.00 | 0.00 | 0.00 | 60 | 1021.2 |
| 20260509003842 | 67 | 265 | 3.0 | 9.0 | 0.00 | 0.00 | 0.00 | 60 | 1021.2 |
| 20260509003344 | 67 | 294 | 3.0 | 9.0 | 0.00 | 0.00 | 0.00 | 60 | 1021.2 |
| 20260509002844 | 67 | 307 | 3.0 | 8.0 | 0.00 | 0.00 | 0.00 | 60 | 1021.2 |
| 20260509002343 | 66 | 296 | 4.0 | 11.0 | 0.00 | 0.00 | 0.00 | 59 | 1021.2 |
| 20260509001842 | 67 | 299 | 4.0 | 11.0 | 0.00 | 0.00 | 0.00 | 59 | 1021.2 |
| 20260509001344 | 67 | 346 | 3.0 | 9.0 | 0.00 | 0.00 | 0.00 | 59 | 1021.1 |
| 20260509000841 | 67 | 242 | 3.0 | 7.0 | 0.00 | 0.00 | 0.00 | 59 | 1021.1 |
| 20260509000340 | 66 | 302 | 4.0 | 9.0 | 0.00 | 0.00 | 0.00 | 59 | 1021.1 |
| 20260508235840 | 67 | 303 | 4.0 | 9.0 | 0.00 | 0.00 | 0.00 | 59 | 1021.2 |
| 20260508235339 | 67 | 334 | 4.0 | 9.0 | 0.00 | 0.00 | 0.00 | 60 | 1021.2 |
| 20260508234838 | 67 | 294 | 3.0 | 9.0 | 0.00 | 0.00 | 0.00 | 58 | 1021.2 |
| 20260508234339 | 66 | 252 | 4.0 | 9.0 | 0.00 | 0.00 | 0.00 | 60 | 1021.2 |
| 20260508233839 | 66 | 301 | 4.0 | 10.0 | 0.00 | 0.00 | 0.00 | 58 | 1021.3 |
| 20260508233343 | 67 | 315 | 4.0 | 8.0 | 0.00 | 0.00 | 0.00 | 60 | 1021.3 |
| 20260508233338 | 67 | 302 | 4.0 | 10.0 | 0.00 | 0.00 | 0.00 | 59 | 1021.3 |
| 20260508232344 | 66 | 317 | 4.0 | 11.0 | 0.00 | 0.00 | 0.00 | 59 | 1021.3 |
| 20260508232340 | 66 | 306 | 4.0 | 8.0 | 0.00 | 0.00 | 0.00 | 60 | 1021.3 |
| 20260508231340 | 66 | 11 | 4.0 | 11.0 | 0.00 | 0.00 | 0.00 | 59 | 1021.2 |
| 20260508230838 | 67 | 213 | 3.0 | 10.0 | 0.00 | 0.00 | 0.00 | 59 | 1021.3 |
| 20260508230339 | 66 | 265 | 4.0 | 10.0 | 0.00 | 0.00 | 0.00 | 61 | 1021.4 |
| 20260508225838 | 66 | 9 | 4.0 | 10.0 | 0.00 | 0.00 | 0.00 | 60 | 1021.2 |
| 20260508225340 | 66 | 297 | 4.0 | 8.0 | 0.00 | 0.00 | 0.00 | 60 | 1021.4 |
| 20260508224836 | 65 | 298 | 5.0 | 9.0 | 0.00 | 0.00 | 0.00 | 61 | 1021.4 |
| 20260508224336 | 66 | 336 | 5.0 | 9.0 | 0.00 | 0.00 | 0.00 | 58 | 1021.3 |
| 20260508223841 | 66 | 322 | 3.0 | 8.0 | 0.00 | 0.00 | 0.00 | 59 | 1021.3 |
| 20260508223836 | 65 | 336 | 4.0 | 9.0 | 0.00 | 0.00 | 0.00 | 60 | 1021.4 |
| 20260508222834 | 66 | 304 | 3.0 | 8.0 | 0.00 | 0.00 | 0.00 | 61 | 1021.3 |
| 20260508222334 | 65 | 277 | 3.0 | 8.0 | 0.00 | 0.00 | 0.00 | 57 | 1021.3 |
| 20260508221834 | 65 | 332 | 3.0 | 8.0 | 0.00 | 0.00 | 0.00 | 59 | 1021.3 |
| 20260508221336 | 65 | 13 | 3.0 | 8.0 | 0.00 | 0.00 | 0.00 | 61 | 1021.4 |
| 20260508220841 | 65 | 295 | 3.0 | 7.0 | 0.00 | 0.00 | 0.00 | 58 | 1021.5 |
| 20260508220834 | 65 | 306 | 4.0 | 8.0 | 0.00 | 0.00 | 0.00 | 60 | 1021.4 |
| 20260508220334 | 65 | 334 | 4.0 | 7.0 | 0.00 | 0.00 | 0.00 | 60 | 1021.5 |
| 20260508215334 | 65 | 249 | 3.0 | 7.0 | 0.00 | 0.00 | 0.00 | 64 | 1021.6 |
| 20260508214839 | 65 | 261 | 3.0 | 9.0 | 0.00 | 0.00 | 0.00 | 60 | 1021.6 |
| 20260508214835 | 65 | 285 | 3.0 | 9.0 | 0.00 | 0.00 | 0.00 | 60 | 1021.5 |
| 20260508213832 | 65 | 292 | 4.0 | 10.0 | 0.00 | 0.00 | 0.00 | 57 | 1021.7 |
| 20260508213333 | 65 | 345 | 5.0 | 10.0 | 0.00 | 0.00 | 0.00 | 61 | 1021.6 |
| 20260508212832 | 64 | 286 | 4.0 | 10.0 | 0.00 | 0.00 | 0.00 | 61 | 1021.6 |
| 20260508212333 | 64 | 5 | 4.0 | 10.0 | 0.00 | 0.00 | 0.00 | 59 | 1021.7 |
| 20260508211832 | 64 | 344 | 3.0 | 9.0 | 0.00 | 0.00 | 0.00 | 59 | 1021.6 |
| 20260508211332 | 64 | 304 | 2.0 | 9.0 | 0.00 | 0.00 | 0.00 | 59 | 1021.6 |
| 20260508210832 | 64 | 215 | 2.0 | 6.0 | 0.00 | 0.00 | 0.00 | 59 | 1021.6 |
| 20260508210330 | 64 | 227 | 2.0 | 6.0 | 0.00 | 0.00 | 0.00 | 59 | 1021.7 |
| 20260508205830 | 64 | 165 | 2.0 | 9.0 | 0.00 | 0.00 | 0.00 | 61 | 1021.6 |
| 20260508205330 | 63 | 237 | 2.0 | 9.0 | 0.00 | 0.00 | 0.00 | 57 | 1021.6 |
| 20260508204834 | 63 | 246 | 2.0 | 8.0 | 0.00 | 0.00 | 0.00 | 60 | 1021.7 |
| 20260508204830 | 63 | 319 | 2.0 | 5.0 | 0.00 | 0.00 | 0.00 | 60 | 1021.6 |
| 20260508203832 | 63 | 355 | 2.0 | 8.0 | 0.00 | 0.00 | 0.00 | 62 | 1021.7 |
| 20260508203334 | 62 | 15 | 2.0 | 8.0 | 0.00 | 0.00 | 0.00 | 62 | 1021.8 |
| 20260508203330 | 62 | 290 | 2.0 | 8.0 | 0.00 | 0.00 | 0.00 | 62 | 1021.8 |
| 20260508202330 | 62 | 32 | 1.0 | 4.0 | 0.00 | 0.00 | 0.00 | 62 | 1021.8 |
| 20260508201834 | 62 | 77 | 2.0 | 6.0 | 0.00 | 0.00 | 0.00 | 62 | 1021.8 |
| 20260508201829 | 62 | 348 | 2.0 | 6.0 | 0.00 | 0.00 | 0.00 | 64 | 1021.8 |
| 20260508200829 | 62 | 250 | 2.0 | 6.0 | 0.00 | 0.00 | 0.00 | 64 | 1021.7 |
| 20260508200328 | 62 | 271 | 3.0 | 8.0 | 0.00 | 0.00 | 0.00 | 64 | 1021.8 |
| 20260508195828 | 61 | 17 | 4.0 | 11.0 | 0.00 | 0.00 | 0.00 | 64 | 1021.8 |
| 20260508195328 | 60 | 17 | 4.0 | 11.0 | 0.00 | 0.00 | 0.00 | 63 | 1021.9 |
| 20260508194828 | 60 | 327 | 2.0 | 8.0 | 0.00 | 0.00 | 0.00 | 67 | 1021.8 |
| 20260508194330 | 60 | 15 | 1.0 | 4.0 | 0.00 | 0.00 | 0.00 | 64 | 1021.9 |
| 20260508193828 | 60 | 319 | 3.0 | 9.0 | 0.00 | 0.00 | 0.00 | 62 | 1021.9 |
| 20260508193327 | 60 | 286 | 4.0 | 9.0 | 0.00 | 0.00 | 0.00 | 60 | 1022.0 |
| 20260508192828 | 60 | 266 | 4.0 | 8.0 | 0.00 | 0.00 | 0.00 | 63 | 1022.1 |
| 20260508192326 | 60 | 325 | 4.0 | 8.0 | 0.00 | 0.00 | 0.00 | 64 | 1022.1 |
| 20260508191828 | 59 | 298 | 3.0 | 7.0 | 0.00 | 0.00 | 0.00 | 64 | 1022.1 |
| 20260508191326 | 59 | 223 | 3.0 | 7.0 | 0.00 | 0.00 | 0.00 | 65 | 1022.1 |
| 20260508190827 | 59 | 243 | 3.0 | 11.0 | 0.00 | 0.00 | 0.00 | 65 | 1022.0 |
| 20260508190326 | 59 | 304 | 3.0 | 11.0 | 0.00 | 0.00 | 0.00 | 64 | 1022.0 |
| 20260508185826 | 59 | 21 | 4.0 | 11.0 | 0.00 | 0.00 | 0.00 | 64 | 1022.0 |
| 20260508185325 | 58 | 22 | 4.0 | 11.0 | 0.00 | 0.00 | 0.00 | 63 | 1021.9 |
| 20260508184824 | 58 | 355 | 3.0 | 9.0 | 0.00 | 0.00 | 0.00 | 62 | 1021.9 |
| 20260508184325 | 58 | 328 | 3.0 | 9.0 | 0.00 | 0.00 | 0.00 | 64 | 1021.9 |
| 20260508183830 | 59 | 249 | 3.0 | 9.0 | 0.00 | 0.00 | 0.00 | 63 | 1022.0 |
| 20260508183825 | 59 | 335 | 3.0 | 9.0 | 0.00 | 0.00 | 0.00 | 64 | 1021.9 |
| 20260508182823 | 59 | 340 | 4.0 | 11.0 | 0.00 | 0.00 | 0.00 | 64 | 1022.0 |
| 20260508182324 | 58 | 268 | 3.0 | 11.0 | 0.00 | 0.00 | 0.00 | 65 | 1022.0 |
| 20260508181823 | 58 | 304 | 3.0 | 8.0 | 0.00 | 0.00 | 0.00 | 67 | 1022.0 |
| 20260508181324 | 58 | 286 | 4.0 | 9.0 | 0.00 | 0.00 | 0.00 | 66 | 1021.9 |
| 20260508180825 | 58 | 343 | 3.0 | 9.0 | 0.00 | 0.00 | 0.00 | 67 | 1021.9 |
| 20260508180322 | 58 | 328 | 3.0 | 8.0 | 0.00 | 0.00 | 0.00 | 65 | 1021.9 |
| 20260508175821 | 57 | 317 | 2.0 | 8.0 | 0.00 | 0.00 | 0.00 | 68 | 1021.9 |
| 20260508175321 | 57 | 5 | 2.0 | 7.0 | 0.00 | 0.00 | 0.00 | 67 | 1021.9 |
| 20260508174820 | 57 | 340 | 2.0 | 7.0 | 0.00 | 0.00 | 0.00 | 67 | 1021.8 |
| 20260508174321 | 57 | 279 | 2.0 | 7.0 | 0.00 | 0.00 | 0.00 | 68 | 1021.8 |
| 20260508173821 | 57 | 273 | 2.0 | 6.0 | 0.00 | 0.00 | 0.00 | 66 | 1021.7 |
| 20260508173321 | 56 | 176 | 3.0 | 8.0 | 0.00 | 0.00 | 0.00 | 66 | 1021.7 |
| 20260508172823 | 55 | 319 | 2.0 | 5.0 | 0.00 | 0.00 | 0.00 | 71 | 1021.7 |
| 20260508172817 | 56 | 228 | 2.0 | 8.0 | 0.00 | 0.00 | 0.00 | 69 | 1021.7 |
| 20260508172433 | 55 | 284 | 3.0 | 6.0 | 0.00 | 0.00 | 0.00 | 73 | 1021.7 |
| 20260508171316 | 55 | 303 | 3.0 | 8.0 | 0.00 | 0.00 | 0.00 | 71 | 1021.6 |
| 20260508170815 | 55 | 273 | 3.0 | 8.0 | 0.00 | 0.00 | 0.00 | 69 | 1021.6 |
| 20260508170316 | 56 | 346 | 2.0 | 7.0 | 0.00 | 0.00 | 0.00 | 68 | 1021.6 |
| 20260508165815 | 56 | 201 | 2.0 | 7.0 | 0.00 | 0.00 | 0.00 | 68 | 1021.6 |
| 20260508165316 | 56 | 165 | 2.0 | 7.0 | 0.00 | 0.00 | 0.00 | 65 | 1021.5 |
| 20260508164815 | 56 | 213 | 3.0 | 7.0 | 0.00 | 0.00 | 0.00 | 65 | 1021.5 |
| 20260508164315 | 55 | 152 | 2.0 | 6.0 | 0.00 | 0.00 | 0.00 | 68 | 1021.5 |
| 20260508163816 | 55 | 244 | 2.0 | 6.0 | 0.00 | 0.00 | 0.00 | 68 | 1021.5 |
| 20260508163315 | 55 | 216 | 1.0 | 6.0 | 0.00 | 0.00 | 0.00 | 67 | 1021.5 |
| 20260508162817 | 55 | 215 | 0.0 | 3.0 | 0.00 | 0.00 | 0.00 | 70 | 1021.5 |
| 20260508162316 | 55 | 147 | 0.0 | 2.0 | 0.00 | 0.00 | 0.00 | 69 | 1021.5 |
| 20260508161817 | 55 | 69 | 0.0 | 2.0 | 0.00 | 0.00 | 0.00 | 72 | 1021.4 |
| 20260508161315 | 55 | 69 | 1.0 | 2.0 | 0.00 | 0.00 | 0.00 | 69 | 1021.3 |
| 20260508160815 | 55 | 69 | 1.0 | 5.0 | 0.00 | 0.00 | 0.00 | 75 | 1021.3 |
| 20260508160319 | 53 | 167 | 1.0 | 4.0 | 0.00 | 0.00 | 0.00 | 75 | 1021.4 |
| 20260508160315 | 54 | 108 | 2.0 | 5.0 | 0.00 | 0.00 | 0.00 | 72 | 1021.3 |
| 20260508155317 | 52 | 171 | 1.0 | 4.0 | 0.00 | 0.00 | 0.00 | 75 | 1021.3 |
| 20260508154815 | 53 | 163 | 1.0 | 4.0 | 0.00 | 0.00 | 0.00 | 76 | 1020.9 |
| 20260508154316 | 52 | 172 | 1.0 | 5.0 | 0.00 | 0.00 | 0.00 | 78 | 1021.1 |
| 20260508153815 | 52 | 176 | 2.0 | 7.0 | 0.00 | 0.00 | 0.00 | 80 | 1020.9 |
| 20260508153314 | 51 | 162 | 3.0 | 7.0 | 0.00 | 0.00 | 0.00 | 79 | 1020.8 |
| 20260508152813 | 51 | 158 | 3.0 | 7.0 | 0.00 | 0.00 | 0.00 | 79 | 1021.0 |
| 20260508152313 | 51 | 155 | 4.0 | 7.0 | 0.00 | 0.00 | 0.00 | 79 | 1021.1 |
| 20260508151815 | 51 | 160 | 3.0 | 5.0 | 0.00 | 0.00 | 0.00 | 79 | 1021.0 |
| 20260508151313 | 51 | 168 | 3.0 | 7.0 | 0.00 | 0.00 | 0.00 | 79 | 1020.9 |
| 20260508150814 | 51 | 171 | 4.0 | 7.0 | 0.00 | 0.00 | 0.00 | 78 | 1020.8 |
| 20260508150314 | 51 | 151 | 4.0 | 7.0 | 0.00 | 0.00 | 0.00 | 79 | 1020.6 |
| 20260508145813 | 50 | 161 | 3.0 | 6.0 | 0.00 | 0.00 | 0.00 | 80 | 1020.7 |
| 20260508145314 | 50 | 159 | 2.0 | 6.0 | 0.00 | 0.00 | 0.00 | 81 | 1020.8 |
| 20260508144814 | 49 | 183 | 1.0 | 2.0 | 0.00 | 0.00 | 0.00 | 82 | 1020.7 |
| 20260508144314 | 48 | 183 | 1.0 | 3.0 | 0.00 | 0.00 | 0.00 | 82 | 1020.7 |
| 20260508143819 | 48 | 180 | 1.0 | 4.0 | 0.00 | 0.00 | 0.00 | 81 | 1020.4 |
| 20260508143814 | 48 | 183 | 1.0 | 4.0 | 0.00 | 0.00 | 0.00 | 81 | 1020.6 |
| 20260508142814 | 48 | 173 | 2.0 | 4.0 | 0.00 | 0.00 | 0.00 | 82 | 1020.4 |
| 20260508142313 | 49 | 172 | 2.0 | 4.0 | 0.00 | 0.00 | 0.00 | 82 | 1020.4 |
| 20260508141813 | 49 | 164 | 2.0 | 4.0 | 0.00 | 0.00 | 0.00 | 82 | 1020.4 |
| 20260508141313 | 49 | 165 | 1.0 | 4.0 | 0.00 | 0.00 | 0.00 | 82 | 1020.4 |
| 20260508140814 | 49 | 177 | 1.0 | 2.0 | 0.00 | 0.00 | 0.00 | 82 | 1020.4 |
| 20260508140313 | 49 | 238 | 0.0 | 2.0 | 0.00 | 0.00 | 0.00 | 82 | 1020.5 |
| 20260508135815 | 49 | 238 | 0.0 | 2.0 | 0.00 | 0.00 | 0.00 | 82 | 1020.4 |
| 20260508135315 | 49 | 238 | 0.0 | 2.0 | 0.00 | 0.00 | 0.00 | 81 | 1020.4 |
| 20260508134813 | 49 | 238 | 1.0 | 4.0 | 0.00 | 0.00 | 0.00 | 82 | 1020.4 |
| 20260508134309 | 49 | 240 | 1.0 | 4.0 | 0.00 | 0.00 | 0.00 | 82 | 1020.3 |
| 20260508133808 | 49 | 252 | 1.0 | 5.0 | 0.00 | 0.00 | 0.00 | 81 | 1020.4 |
| 20260508133308 | 49 | 235 | 2.0 | 5.0 | 0.00 | 0.00 | 0.00 | 82 | 1020.4 |
| 20260508132805 | 49 | 260 | 2.0 | 6.0 | 0.00 | 0.00 | 0.00 | 82 | 1020.3 |
| 20260508132306 | 49 | 261 | 2.0 | 7.0 | 0.00 | 0.00 | 0.00 | 82 | 1020.2 |
| 20260508131811 | 49 | 257 | 1.0 | 7.0 | 0.00 | 0.00 | 0.00 | 83 | 1020.0 |
| 20260508131806 | 49 | 310 | 2.0 | 7.0 | 0.00 | 0.00 | 0.00 | 83 | 1020.0 |
| 20260508130805 | 49 | 252 | 1.0 | 4.0 | 0.00 | 0.00 | 0.00 | 83 | 1020.0 |
| 20260508130305 | 49 | 250 | 2.0 | 7.0 | 0.00 | 0.00 | 0.00 | 82 | 1019.8 |
| 20260508125805 | 49 | 280 | 2.0 | 7.0 | 0.00 | 0.00 | 0.00 | 82 | 1019.8 |
| 20260508125306 | 49 | 252 | 2.0 | 5.0 | 0.00 | 0.00 | 0.00 | 82 | 1019.8 |
| 20260508124805 | 49 | 264 | 2.0 | 10.0 | 0.00 | 0.00 | 0.00 | 81 | 1019.7 |
| 20260508124305 | 49 | 286 | 2.0 | 10.0 | 0.00 | 0.00 | 0.00 | 81 | 1019.6 |
| 20260508123802 | 49 | 269 | 3.0 | 9.0 | 0.00 | 0.00 | 0.00 | 81 | 1019.6 |
| 20260508123304 | 49 | 306 | 3.0 | 9.0 | 0.00 | 0.00 | 0.00 | 82 | 1019.6 |
| 20260508122809 | 48 | 300 | 2.0 | 7.0 | 0.00 | 0.00 | 0.00 | 82 | 1019.5 |
| 20260508122804 | 48 | 261 | 2.0 | 7.0 | 0.00 | 0.00 | 0.00 | 82 | 1019.4 |
| 20260508121803 | 48 | 304 | 2.0 | 7.0 | 0.00 | 0.00 | 0.00 | 82 | 1019.3 |
| 20260508121303 | 48 | 238 | 2.0 | 7.0 | 0.00 | 0.00 | 0.00 | 83 | 1019.4 |
| 20260508120803 | 48 | 250 | 2.0 | 6.0 | 0.00 | 0.00 | 0.00 | 83 | 1019.3 |
| 20260508120309 | 48 | 271 | 1.0 | 6.0 | 0.00 | 0.00 | 0.00 | 83 | 1019.2 |
| 20260508120303 | 48 | 225 | 1.0 | 5.0 | 0.00 | 0.00 | 0.00 | 83 | 1019.2 |
| 20260508115306 | 48 | 254 | 1.0 | 6.0 | 0.00 | 0.00 | 0.00 | 83 | 1019.1 |
| 20260508114800 | 48 | 248 | 2.0 | 5.0 | 0.00 | 0.00 | 0.00 | 83 | 1019.0 |
| 20260508114303 | 48 | 265 | 2.0 | 5.0 | 0.00 | 0.00 | 0.00 | 83 | 1019.0 |
| 20260508113801 | 48 | 252 | 1.0 | 5.0 | 0.00 | 0.00 | 0.00 | 83 | 1019.0 |
| 20260508113301 | 48 | 232 | 1.0 | 5.0 | 0.00 | 0.00 | 0.00 | 83 | 1019.0 |
| 20260508112800 | 48 | 263 | 1.0 | 5.0 | 0.00 | 0.00 | 0.00 | 83 | 1019.0 |
| 20260508112301 | 48 | 252 | 2.0 | 7.0 | 0.00 | 0.00 | 0.00 | 83 | 1019.0 |
| 20260508111806 | 48 | 319 | 1.0 | 6.0 | 0.00 | 0.00 | 0.00 | 84 | 1019.0 |
| 20260508111802 | 48 | 246 | 2.0 | 7.0 | 0.00 | 0.00 | 0.00 | 83 | 1018.9 |
| 20260508110803 | 48 | 273 | 2.0 | 9.0 | 0.00 | 0.00 | 0.00 | 84 | 1019.0 |
| 20260508110300 | 48 | 242 | 2.0 | 9.0 | 0.00 | 0.00 | 0.00 | 84 | 1018.9 |
| 20260508105759 | 48 | 224 | 1.0 | 6.0 | 0.00 | 0.00 | 0.00 | 84 | 1018.7 |
| 20260508105300 | 48 | 275 | 1.0 | 8.0 | 0.00 | 0.00 | 0.00 | 85 | 1018.7 |
| 20260508104759 | 48 | 259 | 1.0 | 8.0 | 0.00 | 0.00 | 0.00 | 85 | 1018.7 |
| 20260508104301 | 48 | 268 | 1.0 | 5.0 | 0.00 | 0.00 | 0.00 | 85 | 1018.5 |
| 20260508103759 | 48 | 247 | 1.0 | 4.0 | 0.00 | 0.00 | 0.00 | 85 | 1018.5 |
| 20260508103305 | 48 | 267 | 2.0 | 7.0 | 0.00 | 0.00 | 0.00 | 85 | 1018.5 |
| 20260508103300 | 48 | 238 | 2.0 | 7.0 | 0.00 | 0.00 | 0.00 | 85 | 1018.5 |
| 20260508102259 | 48 | 269 | 2.0 | 5.0 | 0.00 | 0.00 | 0.00 | 86 | 1018.4 |
| 20260508101802 | 48 | 256 | 1.0 | 7.0 | 0.00 | 0.00 | 0.00 | 86 | 1018.5 |
| 20260508101757 | 48 | 256 | 2.0 | 5.0 | 0.00 | 0.00 | 0.00 | 86 | 1018.4 |
| 20260508100802 | 48 | 250 | 2.0 | 6.0 | 0.00 | 0.00 | 0.00 | 86 | 1018.5 |
| 20260508100757 | 48 | 238 | 2.0 | 7.0 | 0.00 | 0.00 | 0.00 | 86 | 1018.5 |
| 20260508095757 | 48 | 256 | 3.0 | 9.0 | 0.00 | 0.00 | 0.00 | 86 | 1018.4 |
| 20260508095257 | 48 | 222 | 3.0 | 9.0 | 0.00 | 0.00 | 0.00 | 86 | 1018.4 |
| 20260508094758 | 47 | 211 | 3.0 | 10.0 | 0.00 | 0.00 | 0.00 | 87 | 1018.4 |
| 20260508094255 | 47 | 252 | 3.0 | 10.0 | 0.00 | 0.00 | 0.00 | 87 | 1018.3 |
| 20260508093756 | 47 | 173 | 4.0 | 9.0 | 0.00 | 0.00 | 0.00 | 87 | 1018.2 |
| 20260508093300 | 47 | 217 | 4.0 | 8.0 | 0.00 | 0.00 | 0.00 | 87 | 1018.0 |
| 20260508093256 | 47 | 223 | 4.0 | 9.0 | 0.00 | 0.00 | 0.00 | 87 | 1018.1 |
| 20260508092906 | 47 | 221 | 4.0 | 10.0 | 0.00 | 0.00 | 0.00 | 87 | 1018.1 |
| 20260508091754 | 47 | 208 | 5.0 | 10.0 | 0.00 | 0.00 | 0.00 | 87 | 1018.0 |
| 20260508091253 | 47 | 235 | 5.0 | 10.0 | 0.00 | 0.00 | 0.00 | 87 | 1018.0 |
| 20260508090752 | 47 | 229 | 4.0 | 10.0 | 0.00 | 0.00 | 0.00 | 87 | 1018.0 |
| 20260508090252 | 47 | 256 | 4.0 | 10.0 | 0.00 | 0.00 | 0.00 | 87 | 1017.9 |
| 20260508085752 | 47 | 205 | 4.0 | 10.0 | 0.00 | 0.00 | 0.00 | 87 | 1017.7 |
| 20260508085252 | 47 | 216 | 5.0 | 9.0 | 0.00 | 0.00 | 0.00 | 87 | 1017.6 |
| 20260508084757 | 47 | 205 | 5.0 | 10.0 | 0.00 | 0.00 | 0.00 | 87 | 1017.6 |
| 20260508084751 | 47 | 240 | 5.0 | 9.0 | 0.00 | 0.00 | 0.00 | 87 | 1017.6 |
| 20260508083749 | 47 | 222 | 5.0 | 10.0 | 0.00 | 0.00 | 0.00 | 87 | 1017.6 |
| 20260508083249 | 47 | 203 | 5.0 | 10.0 | 0.00 | 0.00 | 0.00 | 87 | 1017.7 |
| 20260508082750 | 47 | 225 | 4.0 | 10.0 | 0.00 | 0.00 | 0.00 | 87 | 1017.7 |
| 20260508082250 | 47 | 210 | 3.0 | 9.0 | 0.00 | 0.00 | 0.00 | 87 | 1017.7 |
| 20260508081748 | 47 | 212 | 3.0 | 8.0 | 0.00 | 0.00 | 0.00 | 87 | 1017.7 |
| 20260508081249 | 47 | 241 | 2.0 | 8.0 | 0.00 | 0.00 | 0.00 | 87 | 1017.7 |
| 20260508080750 | 47 | 298 | 2.0 | 10.0 | 0.00 | 0.00 | 0.00 | 87 | 1017.5 |
| 20260508080248 | 47 | 216 | 2.0 | 10.0 | 0.00 | 0.00 | 0.00 | 87 | 1017.5 |
| 20260508075752 | 47 | 192 | 2.0 | 9.0 | 0.00 | 0.00 | 0.00 | 86 | 1017.4 |
| 20260508075747 | 47 | 209 | 3.0 | 9.0 | 0.00 | 0.00 | 0.00 | 86 | 1017.4 |
| 20260508074748 | 47 | 220 | 4.0 | 9.0 | 0.00 | 0.00 | 0.00 | 86 | 1017.3 |
| 20260508074244 | 47 | 203 | 2.0 | 9.0 | 0.00 | 0.00 | 0.00 | 86 | 1017.3 |
| 20260508073745 | 47 | 250 | 2.0 | 6.0 | 0.00 | 0.00 | 0.00 | 86 | 1017.4 |
| 20260508073248 | 47 | 246 | 2.0 | 9.0 | 0.00 | 0.00 | 0.00 | 85 | 1017.4 |
| 20260508073244 | 47 | 254 | 2.0 | 6.0 | 0.00 | 0.00 | 0.00 | 86 | 1017.3 |
| 20260508072245 | 47 | 236 | 2.0 | 9.0 | 0.00 | 0.00 | 0.00 | 85 | 1017.3 |
| 20260508071744 | 48 | 266 | 2.0 | 8.0 | 0.00 | 0.00 | 0.00 | 85 | 1017.3 |
| 20260508071244 | 48 | 214 | 3.0 | 13.0 | 0.00 | 0.00 | 0.00 | 84 | 1017.2 |
| 20260508070744 | 48 | 229 | 5.0 | 13.0 | 0.00 | 0.00 | 0.00 | 84 | 1017.2 |
| 20260508070245 | 48 | 210 | 5.0 | 10.0 | 0.00 | 0.00 | 0.00 | 84 | 1017.2 |
| 20260508065746 | 48 | 229 | 5.0 | 12.0 | 0.00 | 0.00 | 0.00 | 84 | 1017.2 |
| 20260508065249 | 48 | 221 | 3.0 | 8.0 | 0.00 | 0.00 | 0.00 | 84 | 1017.2 |
| 20260508065245 | 48 | 231 | 4.0 | 12.0 | 0.00 | 0.00 | 0.00 | 84 | 1017.1 |
| 20260508064245 | 48 | 246 | 3.0 | 8.0 | 0.00 | 0.00 | 0.00 | 84 | 1017.2 |
| 20260508063746 | 48 | 205 | 4.0 | 9.0 | 0.00 | 0.00 | 0.00 | 83 | 1017.2 |
| 20260508063251 | 49 | 231 | 4.0 | 9.0 | 0.00 | 0.00 | 0.00 | 83 | 1017.2 |
| 20260508063246 | 49 | 234 | 4.0 | 9.0 | 0.00 | 0.00 | 0.00 | 83 | 1017.2 |
| 20260508062244 | 49 | 228 | 4.0 | 8.0 | 0.00 | 0.00 | 0.00 | 82 | 1017.2 |
| 20260508061743 | 49 | 191 | 4.0 | 8.0 | 0.00 | 0.00 | 0.00 | 82 | 1017.2 |
| 20260508061244 | 49 | 208 | 3.0 | 7.0 | 0.00 | 0.00 | 0.00 | 82 | 1017.2 |
| 20260508060744 | 49 | 273 | 4.0 | 7.0 | 0.00 | 0.00 | 0.00 | 81 | 1017.2 |
| 20260508060243 | 49 | 227 | 4.0 | 9.0 | 0.00 | 0.00 | 0.00 | 81 | 1017.3 |
| 20260508055743 | 49 | 234 | 4.0 | 9.0 | 0.00 | 0.00 | 0.00 | 81 | 1017.2 |
| 20260508055249 | 50 | 191 | 4.0 | 11.0 | 0.00 | 0.00 | 0.00 | 80 | 1017.2 |
| 20260508055243 | 49 | 219 | 4.0 | 11.0 | 0.00 | 0.00 | 0.00 | 81 | 1017.2 |
| 20260508054856 | 50 | 219 | 4.0 | 12.0 | 0.00 | 0.00 | 0.00 | 80 | 1017.2 |
| 20260508053747 | 50 | 263 | 3.0 | 9.0 | 0.00 | 0.00 | 0.00 | 79 | 1017.2 |
| 20260508053742 | 50 | 246 | 3.0 | 12.0 | 0.00 | 0.00 | 0.00 | 80 | 1017.3 |
| 20260508053241 | 50 | 277 | 3.0 | 9.0 | 0.00 | 0.00 | 0.00 | 79 | 1017.2 |
| 20260508052855 | 50 | 297 | 3.0 | 9.0 | 0.00 | 0.00 | 0.00 | 79 | 1017.2 |
| 20260508051742 | 51 | 211 | 3.0 | 8.0 | 0.00 | 0.00 | 0.00 | 79 | 1017.2 |
| 20260508051242 | 51 | 222 | 3.0 | 10.0 | 0.00 | 0.00 | 0.00 | 78 | 1017.2 |
| 20260508050742 | 51 | 207 | 3.0 | 10.0 | 0.00 | 0.00 | 0.00 | 78 | 1017.2 |
| 20260508050238 | 51 | 220 | 3.0 | 11.0 | 0.00 | 0.00 | 0.00 | 77 | 1017.1 |
| 20260508045740 | 51 | 257 | 3.0 | 11.0 | 0.00 | 0.00 | 0.00 | 77 | 1017.0 |
| 20260508045240 | 51 | 223 | 3.0 | 10.0 | 0.00 | 0.00 | 0.00 | 77 | 1017.0 |
| 20260508044743 | 52 | 215 | 2.0 | 7.0 | 0.00 | 0.00 | 0.00 | 76 | 1017.0 |
| 20260508044739 | 51 | 215 | 3.0 | 7.0 | 0.00 | 0.00 | 0.00 | 76 | 1017.0 |
| 20260508043739 | 52 | 310 | 2.0 | 7.0 | 0.00 | 0.00 | 0.00 | 76 | 1017.1 |
| 20260508043239 | 52 | 243 | 2.0 | 7.0 | 0.00 | 0.00 | 0.00 | 75 | 1017.1 |
| 20260508042738 | 52 | 254 | 2.0 | 7.0 | 0.00 | 0.00 | 0.00 | 75 | 1017.0 |
| 20260508042239 | 53 | 236 | 2.0 | 6.0 | 0.00 | 0.00 | 0.00 | 75 | 1017.1 |
| 20260508041740 | 53 | 257 | 2.0 | 5.0 | 0.00 | 0.00 | 0.00 | 74 | 1017.1 |
| 20260508041237 | 53 | 259 | 2.0 | 5.0 | 0.00 | 0.00 | 0.00 | 74 | 1017.1 |
| 20260508040736 | 53 | 240 | 2.0 | 8.0 | 0.00 | 0.00 | 0.00 | 74 | 1017.0 |
| 20260508040237 | 54 | 238 | 2.0 | 8.0 | 0.00 | 0.00 | 0.00 | 73 | 1017.0 |
| 20260508035736 | 54 | 255 | 1.0 | 5.0 | 0.00 | 0.00 | 0.00 | 73 | 1017.0 |
| 20260508035238 | 54 | 242 | 2.0 | 9.0 | 0.00 | 0.00 | 0.00 | 72 | 1016.8 |
| 20260508034737 | 55 | 250 | 3.0 | 9.0 | 0.00 | 0.00 | 0.00 | 71 | 1016.7 |
| 20260508034238 | 55 | 228 | 3.0 | 9.0 | 0.00 | 0.00 | 0.00 | 70 | 1016.7 |
| 20260508033738 | 56 | 224 | 4.0 | 10.0 | 0.00 | 0.00 | 0.00 | 69 | 1016.6 |
| 20260508033238 | 56 | 211 | 5.0 | 10.0 | 0.00 | 0.00 | 0.00 | 68 | 1016.4 |
| 20260508032736 | 56 | 226 | 4.0 | 9.0 | 0.00 | 0.00 | 0.00 | 68 | 1016.4 |
| 20260508032235 | 57 | 261 | 4.0 | 9.0 | 0.00 | 0.00 | 0.00 | 67 | 1016.3 |
| 20260508031735 | 57 | 212 | 5.0 | 9.0 | 0.00 | 0.00 | 0.00 | 66 | 1016.3 |
| 20260508031236 | 57 | 227 | 4.0 | 8.0 | 0.00 | 0.00 | 0.00 | 66 | 1016.2 |
| 20260508030736 | 58 | 218 | 2.0 | 7.0 | 0.00 | 0.00 | 0.00 | 66 | 1016.2 |
| 20260508030239 | 59 | 238 | 2.0 | 9.0 | 0.00 | 0.00 | 0.00 | 64 | 1016.1 |
| 20260508030235 | 58 | 217 | 1.0 | 5.0 | 0.00 | 0.00 | 0.00 | 65 | 1016.1 |
| 20260508025240 | 60 | 225 | 2.0 | 8.0 | 0.00 | 0.00 | 0.00 | 61 | 1016.2 |
| 20260508025233 | 59 | 235 | 3.0 | 9.0 | 0.00 | 0.00 | 0.00 | 64 | 1016.2 |
| 20260508024733 | 60 | 217 | 2.0 | 8.0 | 0.00 | 0.00 | 0.00 | 62 | 1016.2 |
| 20260508023733 | 60 | 195 | 2.0 | 6.0 | 0.00 | 0.00 | 0.00 | 60 | 1016.2 |
| 20260508023233 | 61 | 246 | 2.0 | 7.0 | 0.00 | 0.00 | 0.00 | 59 | 1016.2 |
| 20260508022734 | 61 | 240 | 2.0 | 7.0 | 0.00 | 0.00 | 0.00 | 59 | 1016.2 |
| 20260508022237 | 61 | 241 | 2.0 | 7.0 | 0.00 | 0.00 | 0.00 | 60 | 1016.2 |
| 20260508022233 | 61 | 279 | 3.0 | 7.0 | 0.00 | 0.00 | 0.00 | 59 | 1016.2 |